Time,TemperatureF,DewpointF,PressureIn,WindDirection,WindDirectionDegrees,WindSpeedMPH,WindSpeedGustMPH,Humidity,HourlyPrecipIn,Conditions,Clouds,dailyrainin,SoftwareType,DateUTC
2013-06-03 00:03:00,62.0,58.0,29.74,WNW,284,0.0,-999.0,88,-99.99,,,-99.99,,2013-06-03 04:03:00,
2013-06-03 00:13:00,62.0,58.0,29.74,WNW,284,0.0,-999.0,88,-99.99,,,-99.99,,2013-06-03 04:13:00,
2013-06-03 00:23:00,61.0,57.0,29.74,WNW,284,0.0,-999.0,88,-99.99,,,-99.99,,2013-06-03 04:23:00,
2013-06-03 00:33:00,61.0,58.0,29.75,WNW,284,0.0,-999.0,89,-99.99,,,-99.99,,2013-06-03 04:33:00,
2013-06-03 00:42:00,61.0,58.0,29.75,WNW,284,0.0,-999.0,89,-99.99,,,-99.99,,2013-06-03 04:42:00,
2013-06-03 00:53:00,61.0,58.0,29.75,WNW,284,0.0,-999.0,89,-99.99,,,-99.99,,2013-06-03 04:53:00,
2013-06-03 01:02:00,60.0,58.0,29.75,WNW,284,0.0,-999.0,92,-99.99,,,-99.99,,2013-06-03 05:02:00,
2013-06-03 01:12:00,60.0,58.0,29.75,WNW,284,0.0,-999.0,92,-99.99,,,-99.99,,2013-06-03 05:12:00,
2013-06-03 01:22:00,60.0,58.0,29.76,WNW,284,0.0,-999.0,93,-99.99,,,-99.99,,2013-06-03 05:22:00,
2013-06-03 01:32:00,60.0,58.0,29.76,WNW,285,0.0,-999.0,94,-99.99,,,-99.99,,2013-06-03 05:32:00,
2013-06-03 01:43:00,60.0,58.0,29.76,WNW,285,0.0,-999.0,94,-99.99,,,-99.99,,2013-06-03 05:43:00,
2013-06-03 01:52:00,60.0,59.0,29.76,NW,326,0.0,-999.0,95,-99.99,,,-99.99,,2013-06-03 05:52:00,
2013-06-03 02:02:00,60.0,58.0,29.76,NNW,329,2.0,-999.0,94,-99.99,,,-99.99,,2013-06-03 06:02:00,
2013-06-03 02:12:00,60.0,58.0,29.76,NNW,329,2.0,-999.0,94,-99.99,,,-99.99,,2013-06-03 06:12:00,
2013-06-03 02:22:00,60.0,57.0,29.77,NW,309,4.0,-999.0,91,-99.99,,,-99.99,,2013-06-03 06:22:00,
2013-06-03 02:32:00,59.0,56.0,29.78,NNW,333,5.0,-999.0,89,-99.99,,,-99.99,,2013-06-03 06:32:00,
2013-06-03 02:42:00,59.0,56.0,29.78,NNW,333,5.0,-999.0,89,-99.99,,,-99.99,,2013-06-03 06:42:00,
2013-06-03 02:53:00,58.0,54.0,29.78,WNW,296,6.0,-999.0,88,-99.99,,,-99.99,,2013-06-03 06:53:00,
2013-06-03 03:02:00,58.0,54.0,29.78,NW,316,4.0,-999.0,87,-99.99,,,-99.99,,2013-06-03 07:02:00,
2013-06-03 03:12:00,58.0,54.0,29.78,NW,316,4.0,-999.0,87,-99.99,,,-99.99,,2013-06-03 07:12:00,
2013-06-03 03:22:00,57.0,53.0,29.78,NW,304,3.0,-999.0,86,-99.99,,,-99.99,,2013-06-03 07:22:00,
2013-06-03 03:32:00,56.0,52.0,29.79,NNW,343,3.0,-999.0,86,-99.99,,,-99.99,,2013-06-03 07:32:00,
2013-06-03 03:42:00,56.0,52.0,29.79,NNW,343,3.0,-999.0,86,-99.99,,,-99.99,,2013-06-03 07:42:00,
2013-06-03 03:52:00,56.0,52.0,29.79,NW,316,5.0,-999.0,86,-99.99,,,-99.99,,2013-06-03 07:52:00,
2013-06-03 04:02:00,55.0,51.0,29.79,NW,323,3.0,-999.0,86,-99.99,,,-99.99,,2013-06-03 08:02:00,
2013-06-03 04:12:00,55.0,51.0,29.79,NW,323,3.0,-999.0,86,-99.99,,,-99.99,,2013-06-03 08:12:00,
2013-06-03 04:22:00,55.0,51.0,29.80,WNW,302,3.0,-999.0,86,-99.99,,,-99.99,,2013-06-03 08:22:00,
2013-06-03 04:32:00,55.0,51.0,29.79,NW,304,1.0,-999.0,86,-99.99,,,-99.99,,2013-06-03 08:32:00,
2013-06-03 04:42:00,55.0,51.0,29.79,NW,304,1.0,-999.0,86,-99.99,,,-99.99,,2013-06-03 08:42:00,
2013-06-03 04:52:00,54.0,50.0,29.79,NW,318,2.0,-999.0,85,-99.99,,,-99.99,,2013-06-03 08:52:00,
2013-06-03 05:02:00,54.0,49.0,29.79,NW,305,2.0,-999.0,84,-99.99,,,-99.99,,2013-06-03 09:02:00,
2013-06-03 05:12:00,54.0,49.0,29.79,NW,305,2.0,-999.0,84,-99.99,,,-99.99,,2013-06-03 09:12:00,
2013-06-03 05:22:00,53.0,48.0,29.78,WNW,298,1.0,-999.0,84,-99.99,,,-99.99,,2013-06-03 09:22:00,
2013-06-03 05:33:00,53.0,48.0,29.80,NW,309,3.0,-999.0,84,-99.99,,,-99.99,,2013-06-03 09:33:00,
2013-06-03 05:43:00,53.0,48.0,29.80,NW,309,3.0,-999.0,84,-99.99,,,-99.99,,2013-06-03 09:43:00,
2013-06-03 05:53:00,53.0,48.0,29.80,NW,313,2.0,-999.0,84,-99.99,,,-99.99,,2013-06-03 09:53:00,
2013-06-03 06:03:00,52.0,47.0,29.82,NW,306,3.0,-999.0,84,-99.99,,,-99.99,,2013-06-03 10:03:00,
2013-06-03 06:13:00,52.0,47.0,29.82,NW,306,3.0,-999.0,84,-99.99,,,-99.99,,2013-06-03 10:13:00,
2013-06-03 06:22:00,52.0,47.0,29.82,WNW,302,4.0,-999.0,83,-99.99,,,-99.99,,2013-06-03 10:22:00,
2013-06-03 06:33:00,52.0,47.0,29.83,NW,315,1.0,-999.0,83,-99.99,,,-99.99,,2013-06-03 10:33:00,
2013-06-03 06:42:00,52.0,47.0,29.83,NW,315,1.0,-999.0,83,-99.99,,,-99.99,,2013-06-03 10:42:00,
2013-06-03 06:53:00,52.0,47.0,29.83,NW,308,2.0,-999.0,83,-99.99,,,-99.99,,2013-06-03 10:53:00,
2013-06-03 07:02:00,51.0,46.0,29.83,NW,305,2.0,-999.0,83,-99.99,,,-99.99,,2013-06-03 11:02:00,
2013-06-03 07:12:00,51.0,46.0,29.83,NW,305,2.0,-999.0,83,-99.99,,,-99.99,,2013-06-03 11:12:00,
2013-06-03 07:22:00,51.0,46.0,29.83,NW,313,0.0,-999.0,83,-99.99,,,-99.99,,2013-06-03 11:22:00,
2013-06-03 07:32:00,51.0,46.0,29.84,WNW,298,2.0,-999.0,83,-99.99,,,-99.99,,2013-06-03 11:32:00,
2013-06-03 07:42:00,51.0,46.0,29.84,WNW,298,2.0,-999.0,83,-99.99,,,-99.99,,2013-06-03 11:42:00,
2013-06-03 07:52:00,51.0,46.0,29.84,NW,313,3.0,-999.0,82,-99.99,,,-99.99,,2013-06-03 11:52:00,
2013-06-03 08:02:00,51.0,46.0,29.84,NNW,335,1.0,-999.0,82,-99.99,,,-99.99,,2013-06-03 12:02:00,
2013-06-03 08:12:00,51.0,46.0,29.84,NNW,335,1.0,-999.0,82,-99.99,,,-99.99,,2013-06-03 12:12:00,
2013-06-03 08:22:00,51.0,46.0,29.84,NW,313,1.0,-999.0,83,-99.99,,,-99.99,,2013-06-03 12:22:00,
2013-06-03 08:32:00,51.0,46.0,29.85,NW,305,3.0,-999.0,82,-99.99,,,-99.99,,2013-06-03 12:32:00,
2013-06-03 08:42:00,51.0,46.0,29.85,NW,305,3.0,-999.0,82,-99.99,,,-99.99,,2013-06-03 12:42:00,
2013-06-03 08:52:00,51.0,45.0,29.85,WNW,296,3.0,-999.0,81,-99.99,,,-99.99,,2013-06-03 12:52:00,
2013-06-03 09:02:00,51.0,45.0,29.85,NW,316,4.0,-999.0,81,-99.99,,,-99.99,,2013-06-03 13:02:00,
2013-06-03 09:12:00,51.0,45.0,29.85,NW,316,4.0,-999.0,81,-99.99,,,-99.99,,2013-06-03 13:12:00,
2013-06-03 09:22:00,51.0,45.0,29.85,WNW,296,5.0,-999.0,80,-99.99,,,-99.99,,2013-06-03 13:22:00,
2013-06-03 09:32:00,51.0,45.0,29.86,WNW,296,3.0,-999.0,80,-99.99,,,-99.99,,2013-06-03 13:32:00,
2013-06-03 09:43:00,51.0,45.0,29.86,WNW,296,3.0,-999.0,80,-99.99,,,-99.99,,2013-06-03 13:43:00,
2013-06-03 09:53:00,51.0,45.0,29.86,NW,309,4.0,-999.0,80,-99.99,,,-99.99,,2013-06-03 13:53:00,
2013-06-03 10:02:00,51.0,45.0,29.86,NW,304,2.0,-999.0,79,-99.99,,,-99.99,,2013-06-03 14:02:00,
2013-06-03 10:13:00,51.0,45.0,29.86,NW,304,2.0,-999.0,79,-99.99,,,-99.99,,2013-06-03 14:13:00,
2013-06-03 10:22:00,51.0,45.0,29.86,NW,315,3.0,-999.0,79,-99.99,,,-99.99,,2013-06-03 14:22:00,
2013-06-03 10:32:00,51.0,45.0,29.86,WNW,298,2.0,-999.0,79,-99.99,,,-99.99,,2013-06-03 14:32:00,
2013-06-03 10:42:00,51.0,45.0,29.86,WNW,298,2.0,-999.0,79,-99.99,,,-99.99,,2013-06-03 14:42:00,
2013-06-03 10:52:00,51.0,44.0,29.86,NW,308,5.0,-999.0,78,-99.99,,,-99.99,,2013-06-03 14:52:00,
2013-06-03 11:02:00,52.0,45.0,29.86,NW,318,5.0,-999.0,78,-99.99,,,-99.99,,2013-06-03 15:02:00,
2013-06-03 11:12:00,52.0,45.0,29.86,NW,318,5.0,-999.0,78,-99.99,,,-99.99,,2013-06-03 15:12:00,
2013-06-03 11:22:00,52.0,44.0,29.86,NW,318,4.0,-999.0,75,-99.99,,,-99.99,,2013-06-03 15:22:00,
2013-06-03 11:33:00,52.0,44.0,29.87,NW,304,4.0,-999.0,75,-99.99,,,-99.99,,2013-06-03 15:33:00,
2013-06-03 11:43:00,52.0,44.0,29.87,NW,304,4.0,-999.0,75,-99.99,,,-99.99,,2013-06-03 15:43:00,
2013-06-03 11:53:00,52.0,44.0,29.87,NW,308,5.0,-999.0,74,-99.99,,,-99.99,,2013-06-03 15:53:00,
2013-06-03 12:03:00,53.0,45.0,29.87,WNW,296,4.0,-999.0,74,-99.99,,,-99.99,,2013-06-03 16:03:00,
2013-06-03 12:13:00,53.0,45.0,29.87,WNW,296,4.0,-999.0,74,-99.99,,,-99.99,,2013-06-03 16:13:00,
2013-06-03 12:23:00,53.0,45.0,29.87,NW,309,3.0,-999.0,74,-99.99,,,-99.99,,2013-06-03 16:23:00,
2013-06-03 12:33:00,53.0,45.0,29.87,WNW,296,2.0,-999.0,74,-99.99,,,-99.99,,2013-06-03 16:33:00,
2013-06-03 12:42:00,53.0,45.0,29.88,NNW,329,3.0,-999.0,75,-99.99,,,-99.99,,2013-06-03 16:42:00,
2013-06-03 12:53:00,53.0,45.0,29.88,NNW,329,3.0,-999.0,75,-99.99,,,-99.99,,2013-06-03 16:53:00,
2013-06-03 13:02:00,53.0,45.0,29.87,NW,323,3.0,-999.0,75,-99.99,,,-99.99,,2013-06-03 17:02:00,
2013-06-03 13:12:00,53.0,45.0,29.87,NW,323,3.0,-999.0,75,-99.99,,,-99.99,,2013-06-03 17:12:00,
2013-06-03 13:22:00,53.0,45.0,29.87,NW,309,2.0,-999.0,74,-99.99,,,-99.99,,2013-06-03 17:22:00,
2013-06-03 13:33:00,54.0,46.0,29.87,NW,305,2.0,-999.0,73,-99.99,,,-99.99,,2013-06-03 17:33:00,
2013-06-03 13:42:00,54.0,46.0,29.87,NW,305,2.0,-999.0,73,-99.99,,,-99.99,,2013-06-03 17:42:00,
2013-06-03 13:52:00,56.0,46.0,29.86,SW,229,3.0,-999.0,68,-99.99,,,-99.99,,2013-06-03 17:52:00,
2013-06-03 14:02:00,57.0,46.0,29.86,WNW,298,2.0,-999.0,67,-99.99,,,-99.99,,2013-06-03 18:02:00,
2013-06-03 14:12:00,57.0,46.0,29.86,WNW,298,2.0,-999.0,67,-99.99,,,-99.99,,2013-06-03 18:12:00,
2013-06-03 14:22:00,57.0,46.0,29.86,WNW,298,2.0,-999.0,67,-99.99,,,-99.99,,2013-06-03 18:22:00,
2013-06-03 14:32:00,57.0,45.0,29.85,WNW,289,5.0,-999.0,64,-99.99,,,-99.99,,2013-06-03 18:32:00,
2013-06-03 14:43:00,57.0,45.0,29.85,WNW,289,5.0,-999.0,64,-99.99,,,-99.99,,2013-06-03 18:43:00,
2013-06-03 14:52:00,58.0,45.0,29.85,NW,308,4.0,-999.0,61,-99.99,,,-99.99,,2013-06-03 18:52:00,
2013-06-03 15:03:00,58.0,44.0,29.84,NW,313,6.0,-999.0,60,-99.99,,,-99.99,,2013-06-03 19:03:00,
2013-06-03 15:12:00,58.0,44.0,29.84,NW,313,6.0,-999.0,60,-99.99,,,-99.99,,2013-06-03 19:12:00,
2013-06-03 15:23:00,58.0,45.0,29.85,NW,323,5.0,-999.0,61,-99.99,,,-99.99,,2013-06-03 19:23:00,
2013-06-03 15:33:00,58.0,44.0,29.85,NNW,337,6.0,-999.0,60,-99.99,,,-99.99,,2013-06-03 19:33:00,
2013-06-03 15:42:00,58.0,44.0,29.85,NNW,337,6.0,-999.0,60,-99.99,,,-99.99,,2013-06-03 19:42:00,
2013-06-03 15:52:00,59.0,44.0,29.85,NW,319,4.0,-999.0,58,-99.99,,,-99.99,,2013-06-03 19:52:00,
2013-06-03 16:02:00,59.0,44.0,29.85,NW,311,5.0,-999.0,57,-99.99,,,-99.99,,2013-06-03 20:02:00,
2013-06-03 16:12:00,59.0,44.0,29.85,NW,311,5.0,-999.0,57,-99.99,,,-99.99,,2013-06-03 20:12:00,
2013-06-03 16:22:00,59.0,43.0,29.84,NW,315,4.0,-999.0,56,-99.99,,,-99.99,,2013-06-03 20:22:00,
2013-06-03 16:33:00,59.0,43.0,29.84,NW,322,5.0,-999.0,56,-99.99,,,-99.99,,2013-06-03 20:33:00,
2013-06-03 16:43:00,59.0,43.0,29.84,NW,322,5.0,-999.0,56,-99.99,,,-99.99,,2013-06-03 20:43:00,
2013-06-03 16:52:00,59.0,42.0,29.84,NW,306,6.0,-999.0,54,-99.99,,,-99.99,,2013-06-03 20:52:00,
2013-06-03 17:02:00,60.0,44.0,29.84,NNW,330,4.0,-999.0,55,-99.99,,,-99.99,,2013-06-03 21:02:00,
2013-06-03 17:12:00,60.0,44.0,29.84,NNW,330,4.0,-999.0,55,-99.99,,,-99.99,,2013-06-03 21:12:00,
2013-06-03 17:22:00,60.0,43.0,29.84,NW,313,5.0,-999.0,54,-99.99,,,-99.99,,2013-06-03 21:22:00,
2013-06-03 17:33:00,60.0,43.0,29.84,NNW,346,5.0,-999.0,54,-99.99,,,-99.99,,2013-06-03 21:33:00,
2013-06-03 17:43:00,60.0,43.0,29.84,NNW,346,5.0,-999.0,54,-99.99,,,-99.99,,2013-06-03 21:43:00,
2013-06-03 17:53:00,59.0,41.0,29.85,WNW,299,6.0,-999.0,51,-99.99,,,-99.99,,2013-06-03 21:53:00,
2013-06-03 18:03:00,59.0,41.0,29.85,NNW,330,6.0,-999.0,51,-99.99,,,-99.99,,2013-06-03 22:03:00,
2013-06-03 18:13:00,59.0,41.0,29.85,NNW,330,6.0,-999.0,51,-99.99,,,-99.99,,2013-06-03 22:13:00,
2013-06-03 18:22:00,59.0,39.0,29.85,NW,320,6.0,-999.0,48,-99.99,,,-99.99,,2013-06-03 22:22:00,
2013-06-03 18:33:00,59.0,37.0,29.85,NW,319,5.0,-999.0,44,-99.99,,,-99.99,,2013-06-03 22:33:00,
2013-06-03 18:42:00,59.0,37.0,29.85,NW,319,5.0,-999.0,44,-99.99,,,-99.99,,2013-06-03 22:42:00,
2013-06-03 18:52:00,59.0,37.0,29.85,NW,308,5.0,-999.0,44,-99.99,,,-99.99,,2013-06-03 22:52:00,
2013-06-03 19:02:00,58.0,37.0,29.85,NW,312,5.0,-999.0,46,-99.99,,,-99.99,,2013-06-03 23:02:00,
2013-06-03 19:12:00,58.0,37.0,29.85,NW,312,5.0,-999.0,46,-99.99,,,-99.99,,2013-06-03 23:12:00,
2013-06-03 19:23:00,58.0,40.0,29.85,WNW,298,6.0,-999.0,51,-99.99,,,-99.99,,2013-06-03 23:23:00,
2013-06-03 19:32:00,58.0,41.0,29.85,NW,319,5.0,-999.0,54,-99.99,,,-99.99,,2013-06-03 23:32:00,
2013-06-03 19:42:00,58.0,41.0,29.85,NW,319,5.0,-999.0,54,-99.99,,,-99.99,,2013-06-03 23:42:00,
2013-06-03 19:52:00,57.0,41.0,29.85,WNW,301,4.0,-999.0,56,-99.99,,,-99.99,,2013-06-03 23:52:00,
2013-06-03 20:02:00,57.0,42.0,29.86,NW,313,3.0,-999.0,58,-99.99,,,-99.99,,2013-06-04 00:02:00,
2013-06-03 20:12:00,57.0,42.0,29.86,NW,313,3.0,-999.0,58,-99.99,,,-99.99,,2013-06-04 00:12:00,
2013-06-03 20:22:00,57.0,43.0,29.86,NNW,329,4.0,-999.0,60,-99.99,,,-99.99,,2013-06-04 00:22:00,
2013-06-03 20:32:00,56.0,43.0,29.87,NW,319,4.0,-999.0,61,-99.99,,,-99.99,,2013-06-04 00:32:00,
2013-06-03 20:42:00,56.0,43.0,29.87,NW,319,4.0,-999.0,61,-99.99,,,-99.99,,2013-06-04 00:42:00,
2013-06-03 20:52:00,55.0,42.0,29.87,NW,315,2.0,-999.0,62,-99.99,,,-99.99,,2013-06-04 00:52:00,
2013-06-03 21:02:00,55.0,43.0,29.87,NW,311,2.0,-999.0,64,-99.99,,,-99.99,,2013-06-04 01:02:00,
2013-06-03 21:12:00,55.0,43.0,29.87,NW,311,2.0,-999.0,64,-99.99,,,-99.99,,2013-06-04 01:12:00,
2013-06-03 21:22:00,54.0,42.0,29.88,NW,308,3.0,-999.0,64,-99.99,,,-99.99,,2013-06-04 01:22:00,
2013-06-03 21:32:00,53.0,41.0,29.88,NW,311,4.0,-999.0,63,-99.99,,,-99.99,,2013-06-04 01:32:00,
2013-06-03 21:42:00,53.0,41.0,29.88,NW,311,4.0,-999.0,63,-99.99,,,-99.99,,2013-06-04 01:42:00,
2013-06-03 21:52:00,52.0,39.0,29.89,WNW,301,2.0,-999.0,61,-99.99,,,-99.99,,2013-06-04 01:52:00,
2013-06-03 22:02:00,52.0,39.0,29.89,NW,308,2.0,-999.0,61,-99.99,,,-99.99,,2013-06-04 02:02:00,
2013-06-03 22:12:00,52.0,39.0,29.89,NW,308,2.0,-999.0,61,-99.99,,,-99.99,,2013-06-04 02:12:00,
2013-06-03 22:22:00,51.0,38.0,29.89,NW,308,0.0,-999.0,62,-99.99,,,-99.99,,2013-06-04 02:22:00,
2013-06-03 22:32:00,51.0,39.0,29.90,NW,308,0.0,-999.0,64,-99.99,,,-99.99,,2013-06-04 02:32:00,
2013-06-03 22:42:00,51.0,39.0,29.90,NW,308,0.0,-999.0,64,-99.99,,,-99.99,,2013-06-04 02:42:00,
2013-06-03 22:52:00,50.0,39.0,29.89,NW,308,0.0,-999.0,65,-99.99,,,-99.99,,2013-06-04 02:52:00,
2013-06-03 23:02:00,49.0,39.0,29.89,NW,308,0.0,-999.0,67,-99.99,,,-99.99,,2013-06-04 03:02:00,
2013-06-03 23:12:00,49.0,39.0,29.89,NW,308,0.0,-999.0,67,-99.99,,,-99.99,,2013-06-04 03:12:00,
2013-06-03 23:22:00,49.0,39.0,29.89,NW,308,0.0,-999.0,67,-99.99,,,-99.99,,2013-06-04 03:22:00,
2013-06-03 23:33:00,48.0,39.0,29.90,NW,308,0.0,-999.0,70,-99.99,,,-99.99,,2013-06-04 03:33:00,
2013-06-03 23:43:00,48.0,39.0,29.90,NW,308,0.0,-999.0,70,-99.99,,,-99.99,,2013-06-04 03:43:00,
2013-06-03 23:53:00,47.0,39.0,29.91,NW,308,0.0,-999.0,73,-99.99,,,-99.99,,2013-06-04 03:53:00,